This is the latest recevied weather packets stored in our database for station/object KN4MGS. If no packets are shown the sender has not sent any weather packets the latest 10 day(s).
| Time | Temp. | Humidity | Pressure | Rain* | Wind** | Luminosity | Snow |
|---|---|---|---|---|---|---|---|
| 1777646930 | 17.78° C | 54% | 1019.5 hPa | 0 mm | - | 690 W/m² | - |
| 1777646625 | 16.67° C | 58% | 1019.7 hPa | 0 mm | - | 625 W/m² | - |
| 1777646322 | 16.11° C | 55% | 1019.5 hPa | 0 mm | - | 717 W/m² | - |
| 1777646019 | 16.11° C | 55% | 1019.5 hPa | 0 mm | - | 738 W/m² | - |
| 1777645715 | 15.56° C | 55% | 1019.5 hPa | 0 mm | - | 456 W/m² | - |
| 1777645412 | 15.56° C | 56% | 1019.9 hPa | 0 mm | - | 427 W/m² | - |
| 1777645108 | 16.11° C | 57% | 1019.7 hPa | 0 mm | - | 525 W/m² | - |
| 1777644805 | 15.56° C | 59% | 1019.7 hPa | 0 mm | - | 612 W/m² | - |
| 1777644503 | 15° C | 59% | 1019.9 hPa | 0 mm | - | 358 W/m² | - |
| 1777644198 | 15.56° C | 59% | 1019.9 hPa | 0 mm | - | 422 W/m² | - |
| 1777643895 | 14.44° C | 59% | 1019.5 hPa | 0 mm | - | 598 W/m² | - |
| 1777643593 | 15° C | 60% | 1019.5 hPa | 0 mm | - | 456 W/m² | - |
| 1777643290 | 15° C | 60% | 1019.5 hPa | 0 mm | - | 365 W/m² | - |
| 1777642986 | 14.44° C | 61% | 1019.7 hPa | 0 mm | - | 331 W/m² | - |
| 1777642682 | 14.44° C | 62% | 1019.6 hPa | 0 mm | - | 218 W/m² | - |
| 1777642380 | 13.89° C | 61% | 1019.6 hPa | 0 mm | - | 270 W/m² | - |
| 1777642076 | 13.89° C | 60% | 1019.6 hPa | 0 mm | - | 245 W/m² | - |
| 1777641772 | 14.44° C | 60% | 1019.9 hPa | 0 mm | - | 321 W/m² | - |
| 1777641472 | 13.89° C | 61% | 1019.7 hPa | 0 mm | - | 260 W/m² | - |
| 1777641168 | 13.89° C | 60% | 1019.6 hPa | 0 mm | - | 281 W/m² | - |
| 1777640863 | 14.44° C | 61% | 1019.3 hPa | 0 mm | - | 311 W/m² | - |
| 1777640561 | 13.33° C | 64% | 1019.6 hPa | 0 mm | - | 293 W/m² | - |
| 1777640257 | 13.33° C | 65% | 1019.6 hPa | 0 mm | - | 164 W/m² | - |
| 1777639954 | 13.33° C | 64% | 1019.5 hPa | 0 mm | - | 162 W/m² | - |
| 1777639651 | 13.33° C | 65% | 1019.6 hPa | 0 mm | - | 180 W/m² | - |
* Rain latest hour (hover to see other rain measurements)
** Current wind speed in m/s (hover to see current wind gust speed)